Location: Blankensee
(53.5126°N, 14.3055°E)
Time: 18:57:58
(UTC+00:00)

Cosmos 2026 Rocket - Pass Details

Date: 08 August 2020
Orbit: 940 x 1001 km, 82.9° (Epoch: 20 September)

Event Time Altitude Azimuth Distance (km) Brightness Sun altitude
Rises 00:17:30 0° 349° (NNW) 3,617 8.0 -18.9°
Reaches altitude 10° 00:20:00 10° 349° (N) 2,670 7.2 -18.8°
Maximum altitude 00:26:06 89° 79° (E) 954 3.9 -18.5°
Enters shadow 00:29:53 25° 170° (S) 1,817 4.9 -18.3°
